Location: ???????????
(54.6970°N, 39.1477°E)
Time: 08:07:28
(UTC+00:00)

IDEFIX/ARIANE 42P - Pass Details

Date: 19 May 2025
Orbit: 781 x 797 km, 98.6° (Epoch: 24 June)

Event Time Altitude Azimuth Distance (km) Brightness Sun altitude
Rises 23:07:28 0° 17° (NNE) 3,311 7.7 -11.9°
Reaches altitude 10° 23:09:49 10° 19° (NNE) 2,379 6.6 -11.7°
Maximum altitude 23:15:04 70° 104° (ESE) 850 2.8 -11.4°
Enters shadow 23:19:50 13° 187° (S) 2,188 4.3 -11.0°
